Regional Weather Roundup
Issued by NWS

Home | Current Version | Previous Version | Text Only | Print | Product List | Glossary On
Versions: 1 2 3 4 5 6 7 8 9 10 11 12 13 14 15 16 17 18 19 20 21 22 23 24 25 26 27 28 29 30 31 32 33 34 35 36 37 38 39 40 41 42 43 44 45 46 47 48 49 50
000
ASUS43 KLMK 231710
RWRKY
KENTUCKY REGIONAL WEATHER ROUNDUP
NATIONAL WEATHER SERVICE LOUISVILLE KY
1200 PM EST MON JAN 23 2017

NOTE "FAIR" INDICATES FEW OR NO CLOUDS BELOW 12,000 FEET
WITH NO SIGNIFICANT WEATHER AND/OR OBSTRUCTIONS TO VISIBILITY.

KYZ001>023-026-027-061>063-070>075-231800-
WESTERN AND SOUTH CENTRAL KENTUCKY

CITY           SKY/WX    TMP DP  RH WIND       PRES   REMARKS
PADUCAH        CLOUDY    45  36  70 N15       29.77R
HENDERSON      CLOUDY    43  36  75 NW16      29.73S
OWENSBORO      CLOUDY    44  39  82 NW20G25   29.70S
HOPKINSVILLE   CLOUDY    45  38  79 NW14G21   29.71R
BOWLING GREEN  CLOUDY    47  41  80 NW13G24   29.64S
GLASGOW        CLOUDY    46  46 100 NW14      29.61R FOG
$$

KYZ024-025-028>034-038-045-046-053-231800-
NORTH CENTRAL KENTUCKY

CITY           SKY/WX    TMP DP  RH WIND       PRES   REMARKS
LOUISVILLE/SDF CLOUDY    50  44  80 NW15      29.59S
LOUISVILLE/LOU CLOUDY    50  44  80 NW16G23   29.59S
FORT KNOX      CLOUDY    46  44  90 NW17      29.59R
$$

KYZ035>037-039>044-047>052-055>060-089>105-231800-
NORTHEAST KENTUCKY

CITY           SKY/WX    TMP DP  RH WIND       PRES   REMARKS
LEXINGTON      CLOUDY    48  45  89 N14       29.52R FOG
COVINGTON      CLOUDY    47  45  93 N17G25    29.54S FOG
FRANKFORT      CLOUDY    50  45  83 NW14      29.53R
$$

KYZ054-064>069-076>088-106>120-231800-
SOUTHEAST KENTUCKY

CITY           SKY/WX    TMP DP  RH WIND       PRES   REMARKS
JACKSON        LGT RAIN  50  47  89 VRB6      29.41S FOG
LONDON         CLOUDY    51  47  86 NW15G22   29.43R
SOMERSET       CLOUDY    50  48  93 N14G20    29.50R
MIDDLESBORO    DRIZZLE   54  51  89 N6        29.40S
MONTICELLO     CLOUDY    51  48  89 N16G28    29.51
$$




USA.gov is the U.S. government's official web portal to all federal, state and local government web resources and services.